CAPE
0 0 0 0 0 0 0 0 7 0 0 0 0 0 0 0 0 0 0 0 0 0 0 0 0 0 0 0 40 151 168 151 137 85 9 0 0 0 0 0 0 0 0 0 0 0 26 1 0
0 0 0 0 0 0 0 0 0 0 0 0 0 0 0 0 0 0 0 0 0 0 0 3 0 0 0 1 131 294 453 377 336 283 242 17 0 0 0 0 0 1 0 0 0 0 1 22 5
0 0 0 0 0 0 0 0 0 0 0 0 0 0 0 0 0 0 0 0 0 0 0 30 5 6 110 599 873 818 699 617 541 318 70 2 33 31 16 15 44 39 29 6 6 3 0 3 54
0 0 0 0 0 0 0 0 0 0 0 0 0 0 0 0 0 0 0 0 0 0 0 15 6 41 60 12 103 767 783 729 464 153 3 0 0 6 37 33 30 64 66 48 9 7 3 0 0
0 0 0 0 0 0 0 0 0 0 0 0 0 0 0 0 0 0 0 0 0 0 0 0 0 0 0 0 0 0 0 92 99 18 3 1 17 38 47 59 50 41 43 46 60 4 8 2 9
0 0 0 0 0 0 0 0 0 0 0 0 0 0 0 0 0 0 0 0 0 0 0 0 0 0 0 0 0 0 0 0 0 0 0 0 8 9 16 18 41 37 4 7 78 71 5 17 14
0 0 0 0 0 0 0 0 0 0 0 0 0 0 0 0 0 0 0 0 0 0 0 0 0 0 0 0 0 0 0 0 0 0 0 0 0 0 1 7 14 17 12 3 55 147 7 0 1
0 0 0 0 0 0 0 0 0 0 0 0 0 0 0 0 0 0 0 0 0 0 0 0 0 0 0 0 0 0 0 0 0 0 0 0 0 0 0 1 4 15 38 36 52 231 74 4 0
0 0 0 0 0 0 0 0 0 0 0 0 0 0 0 0 0 0 0 0 0 0 0 0 0 0 0 0 0 0 0 2 8 1 0 0 0 0 0 0 9 46 76 162 232 267 243 19 17
0 0 0 0 0 0 0 0 0 0 0 0 0 0 0 0 0 0 0 0 0 0 0 0 0 0 0 0 0 0 0 12 5 0 0 0 0 0 0 4 6 20 102 326 358 457 325 175 2
0 0 0 0 0 0 0 0 0 0 0 0 0 0 0 0 0 0 0 0 0 0 0 0 0 0 0 0 0 0 0 0 1 0 0 0 0 0 0 0 0 0 11 117 237 363 224 61 24
0 0 0 0 0 0 0 0 0 0 0 0 0 0 0 0 0 0 0 0 0 0 0 0 0 0 0 0 0 0 0 0 0 0 0 0 0 0 0 0 0 0 0 40 159 159 217 77 55
0 0 0 0 0 0 0 0 0 0 0 0 0 0 0 0 0 0 0 0 0 0 0 0 0 0 0 0 0 0 0 0 0 0 1 6 0 0 0 0 0 0 0 9 83 153 114 31 47
1 0 0 0 4 0 0 0 0 0 0 0 0 0 0 0 0 0 0 0 0 0 0 0 0 0 0 0 0 0 0 0 0 0 2 21 6 0 0 0 2 0 0 12 41 142 129 105 41
0 0 0 0 0 0 0 0 0 0 0 0 0 0 0 0 0 0 0 0 0 0 0 0 0 0 0 0 0 0 0 0 0 0 6 34 15 9 0 0 15 15 0 0 27 62 54 70 69
0 0 0 0 0 0 0 0 0 0 0 0 0 0 0 0 0 0 0 0 0 0 0 0 0 0 1 0 0 0 0 0 0 1 26 26 32 36 28 32 27 39 0 0 0 49 63 76 83
0 0 0 0 0 0 0 0 0 0 0 0 0 0 0 0 0 0 0 0 0 0 0 0 0 0 20 0 43 0 36 0 0 1 5 5 1 2 76 51 14 66 0 2 11 91 86 67 53
0 0 0 0 0 0 0 0 0 0 0 0 0 1 1 0 0 0 0 0 0 0 0 0 0 5 9 120 17 32 14 4 0 11 0 6 0 9 120 92 27 56 0 14 13 40 85 69 13
0 0 0 0 0 0 0 0 0 1 12 0 14 0 0 0 0 0 0 0 0 0 0 0 1 26 75 136 120 4 7 12 0 0 0 0 15 8 125 99 101 17 5 1 18 62 37 18 70
0 0 0 0 0 0 0 0 10 1 7 9 0 0 0 0 0 0 0 0 0 0 0 0 1 66 373 177 293 137 20 23 1 7 7 49 36 69 131 88 8 54 0 14 83 99 0 131 147
0 0 0 0 0 0 0 3 6 12 16 0 0 0 0 0 0 0 0 0 0 0 0 0 41 175 372 101 59 18 6 9 3 4 2 46 48 104 75 145 81 90 5 0 32 29 34 86 131
0 0 0 0 0 0 0 0 0 0 0 0 0 0 0 0 0 0 0 0 0 0 0 0 87 267 285 106 75 1 0 0 0 24 0 13 82 180 251 287 194 75 91 0 35 29 24 73 70
0 0 0 0 0 0 0 0 0 0 0 0 0 0 0 0 0 0 0 0 0 0 0 0 82 191 264 105 54 8 0 3 1 0 0 16 70 116 221 227 275 96 76 63 70 59 88 59 41
0 0 0 0 0 0 0 0 0 0 0 0 0 0 0 0 0 0 0 0 0 0 0 7 60 53 199 43 21 0 0 0 0 0 5 26 65 134 226 352 245 161 6 111 84 49 111 67 31
0 0 0 0 0 0 0 0 0 0 0 0 0 3 11 3 0 0 0 0 0 0 0 0 44 3 33 15 11 0 0 0 0 0 24 15 40 131 195 264 258 222 118 141 74 84 88 24 44
0 0 0 0 0 0 0 0 0 0 0 0 11 67 31 1 0 0 0 0 0 0 0 0 27 0 6 22 8 13 0 0 0 29 56 45 81 143 220 185 237 261 275 184 140 121 111 107 53
0 0 0 0 7 4 0 0 0 0 0 0 4 61 43 0 0 0 0 0 0 0 0 0 10 0 1 3 8 35 0 0 0 3 25 31 76 153 184 162 214 255 225 204 110 95 85 61 124
0 0 0 0 0 0 0 0 0 0 0 0 0 52 39 0 0 0 0 0 0 0 0 0 0 0 0 0 0 30 7 25 40 2 0 29 43 66 101 183 197 151 131 146 87 90 119 103 33
0 0 7 1 0 0 0 0 0 0 0 0 15 60 13 0 0 0 0 0 0 0 0 0 0 0 0 0 0 12 0 22 31 10 2 29 57 84 134 207 152 127 117 161 123 160 75 24 5
0 0 0 0 0 0 0 0 0 0 0 0 50 33 0 0 0 0 0 0 0 0 0 0 0 0 0 0 0 0 0 51 12 36 3 12 10 22 98 159 146 142 143 148 113 113 19 9 8
CIN
-0 -0 -0 -0 -0 -0 -0 -0 -16 -0 -0 -0 -0 -0 -0 -0 -0 -0 -0 -0 -0 -0 -0 -0 -0 -0 -0 -0 -234 -144 -80 -69 -80 -142 -47 -0 -0 -0 -0 -0 -0 -0 -0 -0 -0 -0 -0 -0 -0
-0 -0 -0 -0 -0 -0 -0 -0 -0 -0 -0 -0 -0 -0 -0 -0 -0 -0 -0 -0 -0 -0 -0 -136 -0 -0 -0 -147 -143 -48 -2 -2 -5 -19 -44 -0 -0 -0 -0 -0 -0 -0 -0 -0 -0 -0 -0 -0 -0
-0 -0 -0 -0 -0 -0 -0 -0 -0 -0 -0 -0 -0 -0 -0 -0 -0 -0 -0 -0 -0 -0 -0 -274 -286 -193 -187 -48 -8 -1 -1 -1 -1 -18 -206 -0 -0 -0 -0 -1 -0 -0 -0 -0 -0 -0 -0 -0 -6
-0 -0 -0 -0 -0 -0 -0 -0 -0 -0 -0 -0 -0 -0 -0 -0 -0 -0 -0 -0 -0 -0 -0 -304 -329 -277 -236 -2 -149 -3 -1 -0 -1 -61 -0 -0 -0 -1 -1 -0 -0 -0 -0 -0 -0 -0 -0 -0 -0
-0 -0 -0 -0 -0 -0 -0 -0 -0 -0 -0 -0 -0 -0 -0 -0 -0 -0 -0 -0 -0 -0 -0 -0 -0 -0 -0 -0 -0 -0 -0 -40 -69 -38 -1 -0 -0 -0 -0 -0 -0 -0 -0 -0 -0 -0 -0 -0 -0
-0 -0 -0 -0 -0 -0 -0 -0 -0 -0 -0 -0 -0 -0 -0 -0 -0 -0 -0 -0 -0 -0 -0 -0 -0 -0 -0 -0 -0 -0 -0 -0 -0 -0 -0 -0 -1 -0 -0 -0 -0 -0 -0 -0 -77 -32 -1 -0 -1
-0 -0 -0 -0 -0 -0 -5 -0 -0 -0 -0 -0 -0 -0 -0 -0 -0 -0 -0 -0 -0 -0 -0 -0 -0 -0 -0 -0 -0 -0 -0 -0 -0 -0 -0 -0 -0 -0 -0 -0 -0 -0 -0 -0 -26 -11 -1 -0 -0
-0 -0 -0 -0 -0 -0 -0 -0 -0 -0 -0 -0 -0 -0 -0 -0 -0 -0 -0 -0 -0 -0 -0 -0 -0 -0 -0 -0 -0 -0 -0 -0 -0 -0 -0 -0 -0 -0 -0 -0 -0 -0 -0 -1 -29 -3 -18 -1 -0
-0 -0 -0 -0 -0 -0 -0 -0 -0 -0 -0 -0 -0 -0 -0 -0 -0 -0 -0 -0 -0 -0 -0 -0 -0 -0 -0 -0 -0 -0 -1 -16 -28 -9 -0 -0 -0 -0 -0 -0 -2 -6 -8 -0 -1 -1 -1 -3 -1
-0 -0 -0 -0 -0 -0 -0 -0 -0 -0 -0 -0 -0 -0 -0 -0 -0 -0 -0 -0 -0 -0 -0 -0 -0 -0 -0 -0 -0 -0 -0 -26 -37 -0 -0 -0 -0 -0 -0 -1 -1 -1 -6 -2 -0 -0 -2 -0 -11
-0 -0 -0 -0 -0 -0 -0 -0 -0 -0 -0 -0 -0 -0 -0 -0 -0 -0 -0 -0 -0 -0 -0 -0 -0 -0 -0 -0 -0 -0 -0 -0 -5 -0 -0 -0 -0 -0 -0 -0 -0 -0 -8 -11 -7 -4 -3 -28 -40
-15 -0 -0 -0 -0 -0 -0 -0 -0 -0 -0 -0 -0 -0 -0 -0 -0 -0 -0 -0 -0 -0 -0 -0 -0 -0 -0 -0 -0 -0 -0 -0 -0 -0 -0 -0 -0 -0 -0 -0 -0 -0 -0 -18 -15 -19 -16 -33 -34
-7 -0 -0 -0 -0 -0 -0 -0 -0 -0 -0 -0 -0 -0 -0 -0 -0 -0 -0 -0 -0 -0 -0 -0 -0 -0 -0 -0 -0 -0 -0 -0 -0 -0 -19 -32 -0 -0 -0 -0 -0 -0 -0 -88 -25 -18 -36 -62 -56
-44 -0 -0 -0 -24 -0 -0 -0 -0 -0 -0 -0 -0 -0 -0 -0 -0 -0 -0 -0 -0 -0 -0 -0 -0 -0 -0 -0 -0 -0 -0 -0 -0 -0 -20 -28 -30 -6 -0 -0 -9 -0 -0 -31 -45 -30 -39 -40 -61
-0 -0 -0 -0 -0 -0 -0 -0 -0 -0 -0 -0 -0 -0 -0 -0 -0 -0 -0 -0 -0 -0 -0 -0 -0 -0 -0 -0 -0 -0 -0 -0 -0 -0 -31 -14 -21 -28 -0 -0 -18 -18 -0 -1 -66 -34 -34 -37 -37
-0 -0 -0 -0 -0 -0 -0 -0 -0 -0 -0 -0 -0 -0 -0 -0 -0 -0 -0 -0 -0 -0 -0 -0 -0 -0 -42 -0 -0 -0 -0 -0 -0 -2 -17 -16 -19 -21 -31 -26 -23 -14 -0 -0 -0 -26 -32 -31 -28
-0 -0 -0 -0 -0 -0 -0 -0 -0 -0 -0 -0 -0 -0 -0 -0 -0 -0 -0 -0 -0 -0 -0 -0 -0 -0 -179 -0 -104 -0 -49 -0 -0 -24 -9 -14 -6 -17 -18 -31 -34 -21 -0 -18 -28 -17 -19 -31 -35
-0 -0 -0 -0 -0 -0 -0 -0 -0 -0 -0 -0 -0 -8 -13 -0 -0 -0 -0 -0 -0 -0 -0 -0 -0 -123 -202 -85 -106 -69 -67 -26 -0 -51 -0 -13 -0 -23 -14 -36 -36 -35 -0 -42 -45 -21 -33 -31 -24
-0 -0 -0 -0 -0 -0 -0 -0 -0 -15 -56 -0 -21 -0 -0 -0 -0 -0 -0 -0 -0 -0 -0 -0 -73 -205 -132 -72 -46 -29 -41 -26 -0 -0 -0 -0 -11 -14 -19 -29 -33 -57 -48 -14 -43 -58 -54 -37 -15
-0 -0 -0 -0 -0 -0 -0 -0 -15 -5 -39 -18 -0 -0 -0 -0 -0 -0 -0 -0 -0 -0 -0 -0 -18 -164 -23 -48 -25 -37 -45 -25 -24 -42 -38 -8 -30 -14 -14 -33 -20 -46 -0 -28 -29 -49 -3 -26 -25
-0 -0 -0 -0 -0 -0 -0 -3 -10 -10 -15 -0 -0 -0 -0 -0 -0 -0 -0 -0 -0 -0 -0 -0 -224 -100 -16 -60 -59 -51 -19 -30 -11 -46 -39 -18 -17 -10 -13 -19 -44 -40 -47 -0 -30 -43 -47 -16 -29
-0 -0 -0 -0 -0 -0 -0 -0 -0 -0 -0 -0 -0 -0 -0 -0 -0 -0 -0 -0 -0 -0 -0 -0 -178 -60 -24 -57 -54 -42 -0 -23 -12 -30 -0 -28 -15 -7 -7 -9 -20 -30 -37 -0 -34 -39 -32 -28 -24
-0 -0 -0 -0 -0 -0 -0 -0 -0 -0 -0 -0 -0 -0 -0 -0 -0 -0 -0 -0 -0 -0 -0 -0 -168 -69 -17 -47 -58 -60 -0 -22 -10 -0 -0 -21 -23 -31 -22 -24 -25 -33 -39 -38 -37 -34 -25 -45 -44
-0 -0 -0 -0 -0 -0 -0 -0 -0 -0 -0 -0 -0 -0 -0 -0 -0 -0 -0 -0 -0 -0 -0 -307 -176 -126 -23 -65 -77 -0 -0 -0 -0 -0 -31 -32 -27 -34 -29 -18 -33 -26 -57 -30 -35 -38 -30 -35 -32
-0 -0 -0 -0 -0 -0 -0 -0 -0 -0 -0 -0 -0 -104 -184 -116 -0 -0 -0 -0 -0 -0 -0 -0 -174 -89 -100 -107 -92 -0 -0 -0 -0 -0 -23 -59 -40 -23 -32 -28 -37 -37 -34 -25 -34 -27 -27 -28 -22
-0 -0 -0 -0 -0 -0 -0 -0 -0 -0 -0 -0 -103 -111 -194 -33 -0 -0 -0 -0 -0 -0 -0 -0 -174 -0 -152 -94 -82 -60 -0 -0 -0 -29 -10 -16 -12 -16 -15 -40 -44 -37 -38 -37 -29 -31 -37 -24 -34
-0 -0 -0 -0 -3 -5 -0 -0 -0 -0 -0 -0 -109 -114 -194 -0 -0 -0 -0 -0 -0 -0 -0 -0 -225 -0 -154 -161 -87 -40 -0 -0 -0 -27 -32 -29 -19 -18 -20 -46 -50 -28 -30 -32 -36 -32 -28 -33 -40
-0 -0 -1 -0 -3 -0 -0 -0 -0 -0 -0 -0 -9 -134 -177 -0 -0 -0 -0 -0 -0 -0 -0 -0 -0 -0 -0 -0 -0 -36 -18 -35 -39 -22 -43 -28 -26 -31 -43 -31 -44 -38 -37 -42 -44 -30 -37 -45 -89
-0 -0 -8 -4 -0 -0 -0 -0 -0 -0 -0 -0 -134 -143 -168 -0 -0 -0 -0 -0 -0 -0 -0 -0 -0 -0 -0 -0 -0 -47 -0 -40 -49 -36 -65 -39 -29 -28 -30 -39 -37 -50 -43 -31 -33 -38 -59 -76 -113
-0 -0 -0 -0 -0 -0 -0 -0 -0 -0 -0 -0 -124 -141 -7 -0 -0 -0 -0 -0 -0 -0 -0 -0 -0 -0 -0 -0 -0 -0 -0 -22 -53 -42 -53 -80 -83 -34 -35 -37 -48 -37 -42 -44 -39 -47 -80 -128 -139
Wind_Speed
14 14 15 15 18 14 18 23 25 19 17 18 19 19 19 19 19 18 10 14 12 9 7 6 6 8 8 10 11 12 12 11 12 12 12 12 13 16 18 19 18 17 17 17 18 19 19 21 22
13 13 15 18 17 21 23 28 19 19 14 17 17 16 15 19 16 12 13 12 10 9 8 6 6 7 8 11 11 12 12 11 11 12 13 13 14 16 18 19 19 18 18 18 19 20 22 22 22
12 11 17 18 18 16 21 20 24 25 17 17 18 16 15 12 13 11 12 13 11 10 8 7 7 9 11 13 14 13 12 12 12 13 14 15 15 15 15 17 19 19 19 19 20 20 22 23 24
13 15 15 19 20 19 26 27 22 19 21 14 14 16 16 10 12 11 11 12 13 14 11 11 11 12 14 16 17 16 17 15 14 15 16 16 17 17 17 17 19 19 21 21 21 23 22 24 25
13 15 17 20 19 19 20 29 27 28 25 17 12 15 15 14 13 12 13 14 15 14 12 12 11 13 15 17 17 17 17 17 18 18 18 18 18 17 18 19 18 18 20 22 23 23 23 24 25
14 16 21 25 25 28 24 21 24 23 26 19 20 17 13 10 11 11 12 14 14 13 12 12 12 14 14 15 16 16 16 16 17 18 18 19 19 18 18 20 20 20 22 23 24 23 22 22 24
15 19 24 27 35 32 22 25 25 23 21 17 16 19 12 9 9 9 11 14 13 12 12 11 11 14 17 16 17 16 16 16 17 17 18 18 20 20 20 21 21 21 24 27 25 22 20 23 24
12 17 24 26 28 25 27 25 12 19 15 12 13 14 11 5 8 10 11 11 9 9 9 10 14 18 20 20 17 15 13 14 16 17 17 17 19 20 20 20 21 21 23 25 28 22 19 21 24
14 22 23 26 26 29 35 30 28 29 17 21 13 12 7 9 8 9 10 9 8 8 12 13 17 23 25 25 20 14 12 13 13 15 16 15 16 18 17 19 20 18 20 20 23 22 19 21 25
13 23 15 10 23 31 38 35 32 33 30 21 12 11 8 6 6 7 7 6 7 12 12 15 19 23 26 26 25 16 14 12 13 14 15 17 15 17 15 16 20 23 23 18 17 17 18 20 25
16 22 12 13 16 29 38 36 35 34 22 20 10 5 5 6 6 5 4 2 8 10 13 16 20 22 24 23 24 22 20 15 13 14 16 13 16 15 15 17 20 21 16 16 15 17 19 21 24
25 18 16 17 14 15 35 39 39 19 19 18 12 6 6 5 4 2 4 7 10 12 14 18 20 22 23 22 22 19 17 14 13 12 14 10 12 12 13 15 15 15 14 13 15 15 19 22 26
22 20 18 18 37 30 35 38 13 14 18 14 11 8 5 4 2 1 4 8 11 13 16 18 19 20 21 19 17 16 15 13 11 11 12 9 8 8 12 14 15 14 12 11 11 13 23 24 28
26 27 36 32 44 33 30 14 23 13 13 12 9 7 4 4 3 4 4 7 9 12 15 17 18 18 17 16 15 16 13 13 11 11 10 9 3 5 9 11 13 10 9 13 3 16 30 28 29
40 51 49 42 45 44 24 14 13 11 10 9 10 7 4 2 2 2 0 5 8 11 14 16 18 18 18 19 17 14 10 13 14 12 12 14 6 6 6 6 7 4 5 5 9 25 32 29 27
46 45 45 35 42 36 14 16 11 10 11 12 11 5 5 6 4 1 2 4 9 12 14 15 18 20 20 21 19 17 15 15 14 12 10 8 8 5 4 5 7 7 5 2 9 29 32 29 28
40 44 41 40 26 28 13 16 12 7 6 8 8 7 9 6 3 1 2 4 8 10 13 15 17 20 19 21 18 17 15 16 15 15 12 8 6 5 5 6 9 10 7 9 16 25 26 28 25
35 36 14 15 14 10 13 14 7 5 6 8 9 8 9 5 2 2 2 5 7 10 13 13 15 17 20 19 20 18 16 17 17 16 13 11 6 7 8 8 9 11 13 11 19 22 25 23 19
12 13 19 20 21 9 28 15 5 6 6 6 8 10 9 5 1 4 3 5 8 10 12 11 14 16 19 19 22 22 18 18 20 21 18 12 8 10 12 12 14 16 22 18 19 26 26 22 18
13 23 29 33 39 10 10 18 7 5 6 7 11 8 4 6 6 4 4 6 8 10 10 11 14 15 17 19 19 20 19 17 16 19 22 18 13 13 14 14 17 20 25 31 32 29 25 18 18
15 22 30 25 36 37 22 8 10 5 7 13 7 5 3 6 7 5 4 6 8 10 10 11 12 14 16 19 19 22 20 19 17 19 21 16 15 15 17 17 19 23 25 29 31 27 21 22 21
19 16 32 35 34 15 23 25 24 26 35 22 8 5 3 6 8 5 5 6 8 9 9 12 13 14 14 19 20 25 21 18 14 15 15 16 16 17 18 19 21 23 26 29 30 26 23 19 15
30 11 27 33 20 8 15 35 27 25 13 11 4 9 3 7 7 5 5 7 9 9 10 12 13 13 14 17 19 22 18 18 16 16 18 17 17 16 18 20 22 20 28 31 34 29 21 22 18
36 29 17 26 18 21 18 20 22 7 2 11 10 11 10 10 7 7 7 9 9 10 11 12 12 13 14 17 22 25 22 22 21 20 19 19 17 18 18 22 23 25 29 31 32 34 18 17 16
23 14 14 17 14 23 25 33 29 9 3 4 11 12 12 9 8 8 9 10 11 11 11 12 13 14 14 17 21 25 23 23 23 21 18 16 18 21 20 17 25 26 29 31 33 32 18 12 9
22 18 15 20 20 33 35 32 28 8 1 9 12 13 12 11 10 9 11 12 12 12 13 13 13 14 15 17 20 22 22 22 21 19 18 20 21 22 21 18 11 23 30 31 33 25 23 14 11
25 28 21 30 26 33 31 21 27 7 7 8 11 11 11 11 11 12 12 11 13 13 14 14 15 15 16 16 17 20 20 22 20 20 20 22 23 8 19 24 5 9 3 20 22 24 7 9 7
37 22 22 26 30 42 33 31 5 3 6 8 10 10 10 11 12 12 13 13 14 15 15 15 15 15 15 16 17 18 18 19 18 19 20 24 25 25 25 24 6 4 3 10 16 7 4 6 5
26 25 27 23 26 33 33 35 30 9 9 11 11 10 11 12 12 12 12 14 15 15 16 16 16 17 17 17 18 18 19 19 20 23 23 24 25 26 26 27 26 5 7 9 15 13 8 6 6
31 26 23 25 25 22 24 19 6 8 9 12 10 11 10 12 13 12 15 16 16 16 17 17 16 18 18 18 19 19 20 21 23 25 25 25 23 25 26 27 27 30 12 23 18 24 7 8 10
Wind_Direction
76 75 51 35 357 1 343 339 344 1 351 355 353 351 353 350 341 334 27 16 29 31 42 40 26 14 10 0 355 351 347 345 343 341 340 338 336 332 330 329 327 327 323 317 309 303 298 291 287
67 62 36 10 350 336 337 341 347 354 11 0 354 355 358 355 4 19 7 13 27 27 37 32 23 13 4 358 354 350 345 340 339 337 335 331 328 325 323 323 321 320 318 314 307 299 292 289 286
40 50 7 3 351 337 339 350 322 348 352 355 353 5 3 8 27 24 29 25 25 17 26 32 31 15 3 357 351 346 342 338 336 335 331 328 325 322 319 318 315 313 311 309 304 297 289 284 282
11 3 3 347 337 341 336 332 355 357 341 1 6 357 5 20 20 30 34 22 16 19 28 31 23 13 0 355 349 345 340 337 335 331 329 326 323 320 317 314 310 307 304 302 299 293 289 283 279
1 357 340 341 336 334 334 337 320 323 335 353 2 356 6 20 38 43 25 22 18 24 31 31 24 11 1 356 354 352 346 341 337 333 328 324 321 318 315 311 307 304 301 297 293 290 285 281 276
347 345 337 330 334 334 337 332 329 328 324 352 1 5 9 37 27 23 27 19 23 22 26 19 15 10 4 0 358 356 353 348 342 335 329 325 321 317 314 311 306 301 297 293 289 285 282 278 273
327 327 322 324 317 323 345 342 332 321 330 345 352 346 5 13 28 33 24 19 19 22 13 16 9 6 359 358 355 352 350 348 345 342 334 329 323 318 314 310 306 300 293 286 284 280 278 274 269
328 326 323 323 323 324 332 344 3 340 349 4 357 346 349 20 43 33 21 21 35 32 28 18 8 1 357 356 355 352 351 350 347 348 347 342 335 329 323 318 313 305 296 286 277 275 272 273 265
306 305 312 315 319 316 317 322 311 325 346 336 339 345 34 86 52 36 28 22 29 36 28 26 10 360 357 354 353 352 353 351 352 351 349 347 344 339 333 325 319 312 304 293 281 271 267 270 263
291 296 290 277 317 310 302 304 314 317 318 336 358 32 78 65 43 21 27 54 37 38 31 17 5 360 356 355 353 1 358 356 356 356 356 349 348 342 338 332 320 310 305 301 283 269 262 266 261
283 288 266 255 302 310 288 301 304 302 333 340 353 16 24 26 27 51 46 67 37 29 20 7 0 0 360 359 357 357 358 3 7 1 357 1 354 352 346 335 324 319 314 306 287 266 261 261 257
282 255 261 253 275 280 298 294 274 326 330 345 359 18 14 10 9 62 42 49 31 19 13 7 3 2 1 2 1 2 0 6 9 6 0 4 1 3 354 345 343 335 326 307 283 261 255 255 249
269 252 270 274 258 293 297 290 248 312 331 345 358 6 357 358 352 81 44 26 10 5 5 6 4 4 4 5 10 11 9 6 8 11 3 4 5 9 2 351 351 342 328 308 282 252 244 247 241
280 285 273 246 262 289 296 255 313 312 325 327 327 335 339 346 344 16 44 10 5 6 7 8 6 6 8 10 11 10 16 14 9 8 10 6 0 19 12 2 359 4 333 296 206 249 232 239 234
282 274 254 245 264 265 300 282 298 310 316 316 306 314 319 324 311 262 129 4 1 2 8 6 5 8 10 14 13 15 19 14 7 4 5 8 46 28 33 30 24 76 359 293 147 237 224 231 233
266 251 243 249 265 239 283 266 273 315 324 307 295 288 273 278 284 237 101 20 12 10 8 10 8 8 11 11 14 17 17 20 17 17 18 24 23 48 84 60 49 66 39 257 158 222 212 222 228
232 257 245 249 222 228 281 269 271 257 279 300 314 272 266 280 308 35 84 27 13 13 8 9 12 8 15 11 17 22 28 27 24 20 24 27 40 71 114 83 57 75 70 257 238 224 222 221 226
263 268 279 223 213 249 285 268 320 248 263 273 256 270 286 282 263 126 71 32 23 18 12 17 16 18 15 19 17 22 32 28 30 29 35 42 72 94 120 97 81 88 110 251 232 229 223 227 233
234 230 216 212 218 244 305 321 280 308 236 320 274 296 312 292 133 112 60 34 26 21 20 27 23 22 20 24 22 22 28 27 27 27 34 46 87 101 138 134 123 125 146 135 227 217 220 227 220
231 213 219 232 259 313 227 225 228 244 241 286 258 260 311 40 118 109 61 29 25 27 31 36 28 30 35 30 31 29 29 31 34 32 28 44 86 103 130 101 119 130 154 173 201 208 212 220 212
229 211 215 222 243 255 303 312 318 273 285 317 309 267 96 110 122 117 70 39 34 27 39 36 41 36 39 29 35 30 31 31 40 40 36 55 89 108 132 122 121 153 147 154 203 214 222 211 216
216 210 212 222 229 295 307 262 312 311 280 332 310 113 86 111 117 96 71 47 39 43 56 46 44 45 46 33 34 24 37 43 64 61 64 74 85 95 143 129 136 136 154 150 196 210 215 214 208
207 237 205 213 212 250 274 264 304 320 238 329 353 348 96 127 121 94 73 58 62 62 64 57 57 61 55 41 41 34 49 52 78 76 74 80 86 114 166 138 147 111 152 160 167 195 214 211 214
209 261 226 207 215 221 211 225 230 219 358 48 52 55 88 100 85 71 73 76 68 78 69 70 70 65 58 43 27 22 44 56 62 63 74 72 93 111 155 158 151 168 147 164 153 164 216 219 219
249 234 235 270 263 260 280 251 235 253 3 53 75 80 79 77 85 88 86 89 84 84 82 87 83 69 62 45 30 26 51 56 61 61 75 89 93 92 135 213 155 170 158 157 162 177 217 218 212
203 202 228 262 273 258 259 225 234 308 0 79 83 89 82 71 93 92 96 96 94 94 97 100 96 81 75 56 41 48 58 62 68 80 88 82 80 83 124 172 238 196 160 157 156 197 206 214 216
236 201 195 258 271 259 261 289 288 7 72 71 78 75 68 79 94 101 98 91 101 99 105 108 100 88 78 67 63 59 70 60 77 80 83 88 99 161 50 97 4 229 219 109 116 123 219 207 203
198 254 240 251 247 237 262 263 197 134 115 101 91 75 66 87 95 102 101 102 107 107 108 104 96 91 87 81 83 73 76 78 92 86 94 96 97 87 109 84 26 237 217 92 101 98 128 127 190
229 227 246 249 256 253 261 260 273 180 141 123 111 91 85 104 103 103 100 104 110 108 109 106 101 99 94 79 83 82 87 86 88 81 92 92 98 101 94 92 141 203 208 92 98 104 181 141 133
240 239 243 241 252 260 269 288 40 78 102 118 111 105 91 106 106 104 111 107 111 111 114 113 118 110 101 100 90 87 89 82 91 80 95 107 84 93 115 129 143 140 192 180 100 112 127 170 195